Wind_Speed
45 46 46 46 47 48 45 40 37 35 35 36 36 36 35 35 33 33 31 29 28 27 27 27 27 29 30 30 29 27 25 23 21 19 18 17 15 15 14 14 12 12 11 10 9 8 7 7 6
46 47 48 48 50 50 46 41 39 38 39 40 40 39 39 38 36 34 32 31 29 28 28 28 28 29 31 32 32 30 28 25 24 22 20 19 18 17 16 15 14 13 12 11 11 10 9 8 8
47 48 49 51 51 49 46 42 42 42 43 43 43 42 42 41 39 37 35 33 31 30 30 30 30 30 32 33 34 33 31 28 26 24 23 21 20 19 18 17 16 15 14 13 12 11 10 9 9
47 48 51 53 52 48 46 45 45 45 46 45 45 46 45 43 42 40 38 36 34 32 32 32 32 32 32 33 34 35 34 31 29 27 25 24 22 21 20 19 18 16 15 15 14 13 12 11 11
46 48 51 52 51 49 48 48 49 48 48 48 48 48 48 46 45 43 41 39 37 35 34 33 33 35 35 34 35 36 36 34 32 30 28 26 24 23 22 20 19 18 17 16 15 15 14 13 12
45 47 50 51 49 49 50 50 51 51 51 50 51 50 49 48 47 45 44 43 40 38 36 36 35 36 36 37 36 37 37 37 35 33 30 29 27 25 23 22 21 20 19 18 17 16 16 15 14
45 46 48 49 49 50 50 52 53 53 53 52 52 52 51 51 50 48 46 45 43 41 39 38 37 37 38 38 39 39 39 38 38 35 33 31 29 27 25 24 23 22 21 20 19 18 17 17 16
44 45 46 47 48 49 51 53 54 55 55 55 55 55 53 53 52 51 49 47 45 43 41 41 40 39 39 40 40 41 40 40 39 38 36 33 31 29 27 25 24 23 22 21 20 20 19 19 18
44 45 44 45 47 49 51 53 55 56 56 56 57 57 56 54 54 53 51 49 47 45 44 43 42 41 41 41 42 42 42 42 41 40 38 36 33 31 29 27 26 25 24 23 22 22 21 20 20
44 44 43 45 48 49 51 53 54 56 57 57 57 57 57 56 56 55 54 51 49 47 46 45 45 43 42 42 43 43 43 43 42 41 40 38 36 34 31 29 28 27 26 25 24 23 23 22 22
43 43 43 44 47 49 50 52 53 55 55 56 57 57 57 56 57 57 55 53 51 50 49 47 47 46 44 43 44 45 44 44 44 43 42 40 38 36 33 31 30 29 28 27 26 25 25 24 24
40 40 41 41 44 45 47 49 50 52 52 54 56 56 56 55 56 56 56 54 52 52 51 50 48 48 47 45 46 46 46 46 46 45 43 42 40 38 36 33 32 31 30 29 28 27 27 26 26
36 36 37 38 40 41 43 44 47 48 50 53 55 55 54 54 55 55 55 55 54 52 52 52 50 50 49 47 47 47 47 47 47 46 44 43 42 41 39 36 34 33 32 31 30 30 29 28 28
32 33 34 35 36 38 39 40 42 43 46 49 52 53 53 53 53 54 54 56 55 52 52 52 51 50 50 48 47 48 48 48 48 46 46 45 43 42 41 39 37 35 34 33 32 31 30 30 30
29 30 30 31 33 35 36 36 37 40 44 44 47 49 51 51 53 53 54 54 55 53 52 52 52 50 50 50 49 48 48 48 48 47 47 46 45 44 44 42 39 38 36 35 34 33 32 32 32
25 26 26 27 29 31 31 30 32 36 39 40 43 46 49 50 51 52 53 53 54 53 52 52 51 51 51 51 51 50 49 49 48 48 47 47 46 46 45 43 41 39 38 37 36 35 34 34 33
21 22 22 22 24 25 25 25 27 31 34 36 39 42 44 47 49 51 52 52 52 51 50 51 49 49 51 53 52 52 50 50 49 48 47 47 47 47 47 45 43 42 40 40 39 38 37 36 36
16 16 16 17 18 19 20 20 21 23 27 29 32 36 38 42 45 48 49 49 49 48 49 49 49 48 50 51 52 52 52 52 50 49 49 47 47 47 47 46 45 44 42 42 41 39 38 37 37
12 12 12 12 13 13 13 14 15 18 22 25 26 28 30 34 39 44 45 46 47 46 47 48 47 47 48 50 50 51 51 50 49 49 49 47 48 48 48 47 46 45 44 43 42 41 40 39 39
9 9 10 10 10 9 8 9 10 13 15 17 20 22 24 27 32 37 39 41 43 42 44 47 47 47 48 48 48 50 51 51 50 50 49 47 47 46 47 48 47 46 44 44 43 42 41 40 40
7 7 6 7 7 6 5 5 6 6 8 10 12 14 17 19 24 28 33 36 38 39 41 44 46 46 45 46 47 48 49 50 49 50 49 48 46 46 46 46 47 47 46 46 44 44 43 42 43
4 4 3 3 4 4 4 3 4 3 3 4 6 8 11 14 18 20 24 29 32 36 39 41 43 44 45 44 43 43 44 45 46 46 45 46 45 45 45 45 46 47 47 47 46 46 46 46 46
4 4 3 4 4 4 4 4 5 3 3 3 3 3 6 10 13 17 21 24 27 31 34 38 39 38 40 41 41 41 40 41 43 44 43 43 44 43 43 44 46 47 47 47 48 48 48 48 47
6 6 6 5 5 4 5 5 5 5 5 6 4 4 6 7 10 12 16 20 23 25 28 32 34 35 36 37 37 37 38 39 39 40 41 40 40 41 42 43 44 45 47 49 50 49 49 49 48
6 6 6 6 5 5 5 7 7 7 7 7 7 8 8 8 9 9 11 15 19 21 24 26 27 28 29 31 32 32 35 35 36 37 37 38 39 42 42 43 43 44 47 49 49 51 51 50 50
7 7 6 6 7 7 7 8 7 8 9 9 9 9 10 10 9 10 11 11 13 16 18 21 23 24 25 28 29 28 30 33 35 36 36 38 39 41 41 42 42 44 46 47 48 48 49 50 51
8 7 6 7 9 9 9 8 8 9 10 10 10 10 11 11 10 10 11 10 11 13 15 18 21 22 23 26 26 26 27 30 33 35 35 36 37 38 41 41 42 43 44 45 47 48 49 49 50
9 7 7 9 9 10 10 9 10 10 9 10 9 9 11 11 10 11 11 11 11 12 13 15 17 17 19 23 24 23 25 28 31 33 33 32 34 36 39 39 40 42 45 46 47 49 50 50 50
8 8 8 9 11 11 10 11 12 11 11 11 10 10 11 10 10 12 12 11 10 11 10 12 13 14 16 18 19 20 23 25 27 28 30 31 32 35 37 39 41 43 46 46 48 49 49 50 49
8 9 9 9 11 11 11 11 11 10 11 11 10 10 11 11 11 11 10 9 9 9 9 9 9 10 12 14 16 17 19 22 24 26 27 30 33 35 37 40 42 43 45 47 48 49 50 50 50
Wind_Direction
256 255 254 252 251 251 253 254 253 251 251 250 249 249 249 249 249 250 251 249 248 247 245 245 244 241 239 239 239 239 240 242 243 244 246 248 249 252 253 254 255 257 257 258 258 258 257 252 248
256 255 253 251 251 252 253 253 252 250 249 249 249 249 249 249 250 251 250 250 249 248 247 245 245 243 241 239 239 239 240 241 242 242 244 246 248 250 252 252 253 255 256 257 256 257 257 253 250
258 255 253 251 251 253 254 252 251 249 249 249 249 249 249 249 250 250 250 250 250 248 247 246 245 242 241 240 240 239 239 240 241 242 243 244 246 248 250 251 252 254 254 255 256 256 256 255 253
258 255 253 252 252 253 253 252 250 248 248 249 249 249 249 250 250 251 251 250 249 248 246 245 243 241 240 239 239 239 239 239 240 241 243 243 244 246 248 250 251 252 252 254 256 256 256 255 255
258 256 254 252 252 253 252 251 250 248 248 248 248 249 249 250 250 251 251 250 250 248 246 244 243 242 241 240 239 239 239 239 240 241 242 243 244 245 246 248 249 250 251 252 255 256 256 256 256
260 257 255 253 253 253 251 250 249 248 248 248 249 249 249 250 250 250 250 250 249 248 247 244 243 242 240 240 239 239 239 238 239 240 241 243 244 245 246 247 248 248 250 251 253 255 255 256 256
261 259 257 255 254 252 251 250 249 248 248 248 249 249 249 250 250 249 249 249 249 247 247 244 243 241 240 240 240 239 238 238 239 240 241 242 243 245 246 246 247 247 249 251 253 254 255 256 257
261 260 259 257 255 252 251 250 249 249 248 248 249 249 248 249 249 248 247 247 246 245 245 245 242 241 240 239 239 239 237 237 238 239 241 242 243 244 246 246 246 247 249 251 253 254 256 257 258
261 261 260 257 255 253 251 250 249 248 248 247 248 248 248 247 247 247 246 245 244 243 243 243 242 240 239 238 238 237 237 236 237 238 240 241 243 244 245 247 246 247 248 251 253 254 256 257 258
262 261 260 258 256 254 251 251 249 248 247 247 247 248 247 246 245 245 244 243 242 240 239 240 240 239 238 238 236 235 236 235 236 238 238 240 242 244 245 247 247 246 248 250 251 253 255 256 258
262 261 259 258 256 254 252 251 250 248 247 247 246 245 245 245 244 243 243 241 240 238 238 238 239 237 237 237 235 234 235 235 235 236 238 239 241 243 245 246 247 247 249 250 251 252 254 256 257
262 261 259 258 256 255 253 251 249 248 246 245 244 244 243 243 243 241 239 238 237 238 239 238 236 235 236 236 234 234 234 234 234 235 237 238 240 243 244 245 246 247 249 250 251 252 254 255 257
262 260 259 258 256 255 253 251 249 247 246 243 242 241 240 240 240 239 238 237 236 237 237 236 234 234 235 234 233 232 232 232 233 234 235 237 239 241 243 244 245 247 248 249 250 251 254 255 257
262 260 259 258 256 255 254 252 251 246 245 243 242 241 240 239 238 237 236 236 235 237 236 234 233 232 233 232 231 231 232 231 232 233 234 236 239 241 242 243 244 246 248 249 250 252 254 256 258
261 260 258 258 257 256 254 251 251 246 245 244 242 241 239 239 238 237 236 234 235 235 235 233 231 230 230 229 228 229 230 231 231 232 234 236 238 240 241 242 244 246 247 249 251 252 254 257 258
260 258 257 257 256 255 254 250 248 247 244 243 242 240 238 238 238 237 235 234 235 235 233 232 231 229 227 227 228 228 229 230 230 231 233 236 237 239 241 242 243 246 248 250 251 253 254 255 257
259 257 254 255 255 254 253 249 247 249 246 244 243 242 240 239 237 235 234 233 234 233 232 232 229 227 226 225 226 227 227 227 229 231 233 236 238 239 240 241 242 245 248 250 251 251 253 254 256
256 253 253 253 252 253 250 247 246 246 246 245 243 241 240 239 236 233 232 231 232 233 231 229 225 224 223 224 225 226 226 227 228 231 233 234 236 238 239 241 243 245 247 249 250 250 251 253 255
250 249 244 246 252 252 246 246 245 243 243 243 242 238 236 235 231 229 228 229 229 230 227 223 221 222 222 223 225 225 225 226 228 230 233 235 237 237 238 240 242 245 246 248 248 249 251 253 255
240 243 243 245 248 242 241 246 248 243 236 238 239 237 235 233 227 225 226 226 225 225 222 220 221 221 221 222 223 224 225 226 228 229 231 236 237 238 239 240 242 243 244 247 247 249 251 254 256
239 239 239 237 227 242 250 239 245 237 239 241 239 238 239 236 231 228 225 224 224 221 220 218 218 220 221 221 222 223 225 226 227 228 231 234 235 237 237 239 240 241 244 247 248 250 252 254 257
197 193 191 197 211 213 203 171 169 180 225 232 240 240 240 231 224 221 218 217 216 218 217 217 217 218 219 219 221 223 224 225 226 228 230 232 234 236 237 240 243 245 246 247 250 252 253 255 257
150 146 141 147 154 141 138 125 116 129 145 170 193 195 203 202 208 204 209 208 208 209 211 213 214 215 217 219 222 223 224 225 226 228 231 232 234 236 239 242 244 246 249 249 251 252 254 256 257
139 134 130 126 132 137 127 124 111 111 124 140 145 139 162 180 184 188 194 198 199 201 206 209 212 213 216 220 222 223 224 225 226 229 231 232 235 238 241 243 246 249 251 251 252 253 255 257 258
137 137 129 121 114 121 123 122 104 111 113 118 116 123 136 146 152 161 172 185 193 196 198 200 204 207 212 217 219 222 224 226 229 232 235 236 237 240 244 246 248 252 254 255 256 256 257 257 259
142 140 133 126 111 110 117 118 116 115 106 106 108 118 124 130 134 139 150 164 177 187 193 198 200 202 209 214 218 224 226 229 231 233 236 239 241 243 244 247 249 253 255 256 257 258 259 259 260
141 137 127 123 115 110 115 115 118 121 113 108 108 110 115 120 117 121 127 142 161 175 184 190 196 202 210 216 221 227 230 230 232 235 239 243 245 245 246 248 252 255 257 259 260 260 260 261 261
140 139 130 126 122 116 113 110 112 119 115 111 110 112 119 118 114 116 121 133 151 166 179 189 197 204 213 218 224 233 236 235 238 239 242 247 249 248 249 252 256 259 261 261 260 261 262 262 263
143 135 128 120 122 119 114 109 111 111 109 108 107 108 111 119 120 125 128 133 150 164 175 191 201 210 219 224 231 236 236 238 240 242 245 249 252 253 255 257 260 261 262 262 262 263 263 264 263
140 135 129 125 125 124 116 112 114 112 106 109 113 112 108 113 117 125 134 137 148 157 164 181 197 210 221 229 236 239 242 243 245 247 250 255 258 259 260 261 263 265 266 266 265 264 264 264 263
Height
5790 5792 5794 5796 5798 5799 5803 5809 5814 5817 5819 5820 5822 5824 5826 5829 5833 5837 5838 5840 5842 5844 5847 5849 5851 5853 5856 5858 5861 5863 5865 5867 5868 5870 5871 5872 5873 5874 5875 5876 5876 5876 5877 5877 5877 5877 5877 5877 5877
5781 5783 5785 5786 5788 5791 5797 5803 5806 5808 5810 5811 5813 5816 5819 5822 5825 5828 5831 5833 5836 5839 5841 5844 5846 5848 5851 5854 5856 5859 5861 5864 5865 5867 5868 5870 5871 5872 5873 5874 5874 5875 5875 5875 5875 5876 5876 5876 5876
5770 5772 5775 5776 5779 5784 5790 5794 5796 5798 5800 5802 5805 5808 5811 5815 5818 5821 5825 5827 5830 5833 5835 5838 5841 5843 5845 5849 5852 5855 5857 5860 5862 5864 5865 5867 5868 5869 5871 5871 5872 5873 5873 5874 5874 5874 5875 5875 5875
5760 5762 5764 5767 5771 5777 5780 5783 5785 5788 5791 5793 5796 5799 5803 5807 5810 5814 5817 5821 5824 5826 5829 5832 5835 5837 5840 5843 5846 5850 5853 5856 5858 5860 5862 5863 5865 5866 5868 5869 5870 5870 5871 5871 5872 5872 5873 5873 5873
5749 5751 5753 5757 5763 5767 5770 5772 5774 5777 5780 5784 5787 5790 5794 5798 5802 5806 5809 5813 5816 5820 5822 5825 5828 5831 5834 5838 5841 5844 5847 5851 5853 5856 5858 5860 5861 5863 5865 5866 5867 5868 5868 5869 5870 5870 5871 5871 5872
5739 5741 5743 5748 5753 5756 5758 5760 5763 5766 5770 5774 5777 5781 5785 5789 5793 5797 5801 5804 5808 5812 5815 5818 5821 5825 5828 5831 5835 5838 5842 5845 5849 5851 5854 5856 5857 5859 5861 5862 5864 5865 5866 5866 5867 5868 5868 5869 5869
5730 5730 5733 5738 5741 5744 5747 5748 5751 5755 5759 5763 5766 5771 5776 5779 5783 5787 5792 5796 5800 5804 5807 5811 5814 5817 5821 5825 5828 5832 5835 5839 5843 5846 5849 5851 5853 5855 5857 5859 5860 5861 5862 5863 5864 5865 5866 5866 5867
5718 5721 5723 5727 5730 5733 5735 5736 5739 5743 5748 5752 5754 5760 5765 5769 5772 5777 5781 5786 5790 5795 5799 5802 5806 5810 5813 5817 5821 5825 5829 5833 5837 5840 5843 5846 5849 5851 5853 5855 5856 5858 5859 5860 5861 5862 5862 5863 5864
5708 5711 5714 5716 5717 5720 5722 5724 5727 5731 5736 5739 5743 5748 5753 5757 5760 5765 5771 5776 5781 5786 5790 5794 5798 5802 5805 5809 5813 5817 5821 5826 5830 5834 5838 5841 5844 5846 5848 5850 5852 5854 5855 5856 5857 5858 5859 5860 5860
5697 5700 5704 5704 5705 5707 5709 5712 5715 5719 5723 5727 5731 5735 5740 5744 5749 5753 5759 5765 5771 5776 5780 5785 5789 5793 5797 5801 5805 5810 5814 5818 5823 5827 5831 5835 5838 5841 5843 5846 5847 5849 5850 5852 5853 5854 5855 5856 5856
5687 5690 5691 5692 5692 5694 5697 5700 5702 5705 5711 5714 5718 5722 5726 5731 5736 5742 5747 5754 5760 5765 5770 5775 5779 5784 5788 5793 5797 5802 5806 5811 5816 5820 5824 5828 5832 5835 5838 5840 5842 5844 5846 5847 5848 5850 5851 5851 5852
5677 5678 5679 5680 5681 5682 5684 5687 5690 5693 5699 5701 5704 5708 5713 5718 5724 5729 5736 5742 5748 5754 5759 5765 5770 5775 5780 5785 5789 5794 5799 5803 5808 5813 5817 5822 5826 5829 5832 5835 5837 5839 5841 5842 5843 5845 5846 5847 5847
5667 5668 5668 5669 5670 5671 5673 5675 5678 5683 5685 5686 5690 5695 5701 5706 5711 5717 5723 5730 5736 5742 5748 5754 5760 5765 5770 5776 5781 5785 5790 5795 5800 5805 5810 5815 5819 5822 5826 5828 5831 5833 5834 5836 5838 5839 5840 5841 5842
5658 5658 5659 5659 5659 5661 5663 5665 5667 5672 5671 5674 5678 5683 5689 5694 5700 5705 5711 5718 5724 5730 5736 5742 5749 5755 5761 5766 5772 5777 5782 5787 5792 5797 5802 5807 5811 5815 5818 5821 5824 5826 5828 5830 5831 5833 5834 5835 5836
5650 5650 5651 5650 5650 5652 5653 5657 5658 5658 5659 5663 5667 5671 5677 5682 5687 5693 5699 5706 5712 5719 5725 5731 5738 5744 5751 5757 5763 5768 5773 5779 5784 5789 5794 5799 5803 5807 5810 5814 5817 5819 5821 5823 5825 5827 5828 5829 5830
5643 5643 5644 5643 5643 5644 5647 5650 5649 5647 5649 5653 5656 5660 5665 5670 5675 5681 5687 5694 5701 5707 5713 5720 5726 5734 5740 5747 5753 5759 5765 5770 5776 5781 5786 5790 5795 5799 5802 5806 5809 5812 5814 5816 5818 5820 5821 5822 5823
5637 5637 5637 5637 5637 5637 5639 5642 5641 5640 5641 5644 5646 5649 5653 5658 5664 5669 5675 5682 5689 5696 5702 5708 5715 5723 5730 5737 5743 5749 5755 5761 5767 5772 5777 5782 5786 5790 5794 5798 5801 5804 5806 5809 5811 5812 5814 5815 5816
5633 5633 5633 5632 5632 5632 5633 5634 5634 5634 5634 5636 5638 5640 5644 5648 5653 5658 5664 5670 5677 5684 5691 5698 5705 5713 5720 5726 5733 5739 5746 5752 5758 5763 5768 5773 5777 5781 5786 5789 5793 5795 5798 5800 5802 5804 5806 5807 5808
5629 5629 5629 5629 5628 5628 5629 5629 5629 5628 5629 5630 5631 5632 5635 5639 5643 5648 5654 5660 5667 5673 5680 5687 5695 5703 5710 5717 5724 5731 5737 5744 5750 5755 5760 5764 5768 5772 5776 5780 5784 5787 5790 5792 5794 5796 5798 5799 5800
5627 5627 5627 5627 5626 5626 5626 5626 5625 5624 5624 5625 5626 5627 5629 5632 5635 5641 5646 5651 5658 5664 5671 5677 5685 5693 5701 5709 5716 5723 5729 5735 5741 5746 5751 5756 5760 5763 5767 5771 5775 5778 5781 5783 5785 5787 5789 5791 5792
5624 5624 5625 5624 5624 5624 5624 5624 5622 5622 5622 5622 5623 5624 5625 5627 5630 5634 5639 5644 5650 5656 5663 5670 5677 5685 5693 5700 5707 5714 5720 5726 5732 5738 5743 5748 5752 5755 5759 5762 5766 5769 5772 5774 5776 5778 5780 5781 5783
5623 5623 5623 5623 5623 5623 5623 5622 5622 5621 5620 5620 5620 5620 5621 5623 5626 5629 5633 5637 5643 5650 5657 5664 5671 5678 5686 5693 5700 5707 5713 5719 5725 5730 5735 5739 5743 5747 5750 5754 5757 5759 5762 5765 5767 5769 5771 5771 5772
5623 5623 5623 5623 5623 5623 5623 5622 5623 5621 5620 5620 5620 5619 5619 5621 5623 5626 5629 5634 5639 5645 5652 5659 5666 5673 5680 5687 5694 5701 5706 5712 5718 5722 5727 5731 5735 5739 5742 5745 5748 5750 5753 5755 5757 5758 5760 5761 5762
5623 5623 5623 5623 5623 5624 5623 5623 5623 5621 5621 5621 5620 5620 5620 5621 5623 5625 5628 5632 5636 5642 5649 5655 5662 5668 5676 5683 5689 5695 5700 5706 5710 5715 5719 5723 5726 5730 5734 5737 5739 5741 5743 5745 5746 5748 5749 5751 5751
5624 5625 5625 5625 5624 5624 5624 5624 5624 5622 5622 5622 5622 5622 5622 5623 5624 5626 5628 5631 5636 5641 5646 5653 5659 5666 5672 5679 5684 5690 5695 5699 5704 5709 5713 5716 5719 5723 5726 5728 5730 5732 5734 5735 5736 5737 5738 5739 5740
5625 5626 5627 5626 5625 5625 5625 5624 5625 5624 5623 5623 5624 5624 5624 5625 5626 5628 5630 5633 5636 5640 5645 5651 5657 5664 5669 5675 5681 5685 5689 5694 5698 5702 5706 5709 5712 5715 5717 5719 5721 5722 5723 5724 5725 5726 5727 5728 5728
5626 5626 5627 5627 5627 5627 5626 5627 5627 5626 5626 5626 5626 5626 5626 5627 5628 5629 5631 5634 5637 5641 5646 5651 5656 5662 5667 5672 5676 5680 5683 5687 5691 5695 5698 5702 5704 5706 5709 5711 5712 5713 5713 5714 5714 5715 5715 5715 5716
5628 5628 5629 5629 5628 5628 5629 5628 5629 5628 5628 5628 5629 5629 5629 5630 5631 5632 5633 5636 5639 5643 5647 5651 5656 5660 5665 5669 5672 5675 5678 5682 5685 5688 5691 5694 5696 5698 5700 5701 5702 5703 5704 5704 5703 5704 5703 5704 5704
5629 5630 5630 5630 5630 5631 5630 5633 5631 5631 5630 5630 5631 5631 5632 5633 5634 5635 5636 5638 5641 5644 5647 5651 5655 5658 5662 5665 5668 5671 5674 5676 5679 5681 5684 5686 5688 5689 5691 5692 5693 5693 5692 5692 5692 5692 5691 5691 5691
5631 5631 5632 5633 5633 5633 5633 5637 5633 5633 5633 5633 5634 5634 5634 5635 5636 5637 5638 5640 5642 5645 5648 5651 5654 5656 5659 5662 5665 5667 5668 5670 5672 5675 5677 5679 5680 5681 5681 5682 5682 5681 5681 5680 5679 5679 5678 5678 5678